Location: Unspecified
(49.2170°N, 0.0000°E)
Time: 15:22:58
(UTC+00:00)

Vanguard 1 - Pass Details

Date: 23 June 2021
Orbit: 651 x 3832 km, 34.2° (Epoch: 23 July)

Event Time Altitude Azimuth Distance (km) Brightness Sun altitude
Rises 23:07:47 0° 261° (W) 7,975 14.8 -16.4°
Reaches altitude 10° 23:13:40 10° 257° (WSW) 6,884 14.3 -16.6°
Maximum altitude 23:33:52 47° 193° (SSW) 3,652 12.5 -17.1°
Drops below altitude 10° 23:46:51 10° 125° (SE) 4,574 13.1 -17.3°
Sets 23:49:53 0° 119° (ESE) 5,218 13.5 -17.3°
